When you browse on this site, cookies collect data to enhance your experience and personalize the content and advertising you see.
Visit our Privacy Policy to learn more. By continuing to use the site, you agree to this use of cookies and data.
  • In Deutschland
  • Länderverzeichnis
  • Für 7 Tage
  • Wassertemperatur
  • Wetterkarte
  • Widgets
  • user-avatar
    Anmelden

    Stündliche Wetter Hamar

    Heute, 29 März, Sonntag

    Zeit Temperatur Niederschläge Wind Luftdruck Luftfeuchtigkeit
    00:00 -5°C° 0 mm 2 m/S 758 mmHg 60%
    01:00 -6°C° 0 mm 2 m/S 758 mmHg 61%
    02:00 -6°C° 0 mm 2 m/S 758 mmHg 61%
    03:00 -6°C° 0 mm 2 m/S 758 mmHg 61%
    04:00 -7°C° 0 mm 2 m/S 758 mmHg 61%
    05:00 -7°C° 0 mm 2 m/S 758 mmHg 60%
    06:00 -7°C° 0 mm 2 m/S 758 mmHg 58%
    07:00 -7°C° 0 mm 2 m/S 758 mmHg 56%
    08:00 -6°C° 0 mm 2 m/S 758 mmHg 51%
    09:00 -4°C° 0 mm 2 m/S 757 mmHg 46%
    10:00 -4°C° 0 mm 3 m/S 756 mmHg 40%
    11:00 -2°C° 0 mm 3 m/S 756 mmHg 39%
    12:00 -1°C° 0 mm 3 m/S 755 mmHg 38%
    13:00 0°C° 0 mm 3 m/S 755 mmHg 37%
    14:00 0°C° 0 mm 3 m/S 753 mmHg 40%
    15:00 0°C° 0 mm 3 m/S 752 mmHg 43%
    16:00 +1°C° 0 mm 3 m/S 751 mmHg 46%
    17:00 0°C° 0 mm 3 m/S 751 mmHg 51%
    18:00 -1°C° 0 mm 3 m/S 751 mmHg 56%
    19:00 -2°C° 0 mm 2 m/S 750 mmHg 62%
    20:00 -2°C° 0 mm 2 m/S 750 mmHg 65%
    21:00 -3°C° 0 mm 2 m/S 751 mmHg 67%
    22:00 -4°C° 0 mm 2 m/S 751 mmHg 70%
    23:00 -4°C° 0 mm 2 m/S 751 mmHg 70%

    Morgen, 30 März, Montag

    Zeit Temperatur Niederschläge Wind Luftdruck Luftfeuchtigkeit
    00:00 -4°C° 0 mm 2 m/S 752 mmHg 70%
    01:00 -5°C° 0 mm 2 m/S 752 mmHg 71%
    02:00 -5°C° 0 mm 2 m/S 752 mmHg 71%
    03:00 -5°C° 0 mm 2 m/S 753 mmHg 70%
    04:00 -5°C° 0 mm 2 m/S 753 mmHg 70%
    05:00 -5°C° 0 mm 2 m/S 753 mmHg 70%
    06:00 -5°C° 0 mm 2 m/S 754 mmHg 69%
    07:00 -5°C° 0 mm 2 m/S 754 mmHg 68%
    08:00 -4°C° 0 mm 2 m/S 754 mmHg 62%
    09:00 -2°C° 0 mm 2 m/S 754 mmHg 56%
    10:00 -1°C° 0 mm 2 m/S 754 mmHg 49%
    11:00 +1°C° 0 mm 2 m/S 754 mmHg 47%
    12:00 +2°C° 0 mm 2 m/S 754 mmHg 44%
    13:00 +2°C° 0 mm 2 m/S 754 mmHg 41%
    14:00 +2°C° 0 mm 2 m/S 753 mmHg 41%
    15:00 +3°C° 0 mm 2 m/S 753 mmHg 41%
    16:00 +4°C° 0 mm 1 m/S 752 mmHg 41%
    17:00 +3°C° 0 mm 1 m/S 752 mmHg 48%
    18:00 +1°C° 0 mm 1 m/S 752 mmHg 55%
    19:00 0°C° 0 mm 1 m/S 753 mmHg 62%
    20:00 0°C° 0 mm 1 m/S 753 mmHg 64%
    21:00 0°C° 0 mm 1 m/S 753 mmHg 66%
    22:00 0°C° 0 mm 1 m/S 753 mmHg 68%
    23:00 0°C° 0 mm 1 m/S 752 mmHg 68%

    übermorgen, 31 März, Dienstag

    Zeit Temperatur Niederschläge Wind Luftdruck Luftfeuchtigkeit
    00:00 -1°C° 0 mm 1 m/S 752 mmHg 68%
    01:00 -1°C° 0 mm 1 m/S 752 mmHg 68%
    02:00 -1°C° 0 mm 1 m/S 751 mmHg 69%
    03:00 -1°C° 0 mm 1 m/S 751 mmHg 70%
    04:00 -1°C° 0 mm 1 m/S 750 mmHg 71%
    05:00 -1°C° 0 mm 1 m/S 749 mmHg 70%
    06:00 -1°C° 0 mm 1 m/S 748 mmHg 69%
    07:00 -1°C° 0 mm 1 m/S 747 mmHg 69%
    08:00 0°C° 0 mm 1 m/S 746 mmHg 64%
    09:00 +1°C° 0 mm 1 m/S 745 mmHg 59%
    10:00 +1°C° 0 mm 2 m/S 744 mmHg 55%
    11:00 +2°C° 0 mm 2 m/S 743 mmHg 55%
    12:00 +3°C° 0 mm 2 m/S 742 mmHg 56%
    13:00 +3°C° 0 mm 2 m/S 741 mmHg 56%
    14:00 +3°C° 0 mm 3 m/S 740 mmHg 55%
    15:00 +4°C° 0 mm 4 m/S 740 mmHg 54%
    16:00 +5°C° 0 mm 4 m/S 739 mmHg 53%
    17:00 +4°C° 0 mm 4 m/S 739 mmHg 60%
    18:00 +3°C° 0 mm 3 m/S 738 mmHg 67%
    19:00 +3°C° 0 mm 2 m/S 738 mmHg 74%
    20:00 +2°C° 0 mm 2 m/S 738 mmHg 76%
    21:00 +1°C° 0 mm 2 m/S 739 mmHg 78%
    22:00 +2°C° 0 mm 1 m/S 739 mmHg 80%
    23:00 -1°C° 0 mm 2 m/S 739 mmHg 78%

    1 April, Mittwoch

    Zeit Temperatur Niederschläge Wind Luftdruck Luftfeuchtigkeit
    00:00 -1°C° 0 mm 2 m/S 739 mmHg 76%
    01:00 -1°C° 0 mm 2 m/S 740 mmHg 74%
    02:00 -2°C° 0 mm 2 m/S 740 mmHg 72%
    03:00 -2°C° 0 mm 2 m/S 740 mmHg 71%
    04:00 -2°C° 0 mm 3 m/S 740 mmHg 69%
    05:00 -2°C° 0 mm 2 m/S 740 mmHg 67%
    06:00 -2°C° 0 mm 2 m/S 740 mmHg 66%
    07:00 -2°C° 0 mm 2 m/S 740 mmHg 64%
    08:00 -1°C° 0 mm 2 m/S 740 mmHg 60%
    09:00 +1°C° 0 mm 2 m/S 740 mmHg 55%
    10:00 +2°C° 0 mm 2 m/S 740 mmHg 51%
    11:00 +3°C° 0 mm 2 m/S 740 mmHg 48%
    12:00 +3°C° 0 mm 2 m/S 740 mmHg 45%
    13:00 +4°C° 0 mm 2 m/S 740 mmHg 42%
    14:00 +4°C° 0 mm 2 m/S 739 mmHg 43%
    15:00 +4°C° 0 mm 2 m/S 739 mmHg 44%
    16:00 +5°C° 0 mm 1 m/S 739 mmHg 45%
    17:00 +4°C° 0 mm 1 m/S 739 mmHg 52%
    18:00 +3°C° 0 mm 1 m/S 738 mmHg 60%
    19:00 0°C° 0 mm 0 m/S 738 mmHg 67%
    20:00 0°C° 0 mm 0 m/S 738 mmHg 69%
    21:00 0°C° 0 mm 0 m/S 738 mmHg 70%
    22:00 -1°C° 0 mm 0 m/S 738 mmHg 71%
    23:00 -1°C° 0 mm 0 m/S 738 mmHg 72%

    2 April, Donnerstag

    Zeit Temperatur Niederschläge Wind Luftdruck Luftfeuchtigkeit
    00:00 -1°C° 0 mm 0 m/S 738 mmHg 72%
    01:00 -1°C° 0 mm 0 m/S 738 mmHg 73%
    02:00 -1°C° 0 mm 0 m/S 737 mmHg 73%
    03:00 -1°C° 0 mm 0 m/S 737 mmHg 73%
    04:00 -1°C° 0 mm 0 m/S 737 mmHg 72%
    05:00 -1°C° 0 mm 0 m/S 736 mmHg 72%
    06:00 -1°C° 0 mm 0 m/S 736 mmHg 71%
    07:00 -1°C° 0 mm 0 m/S 736 mmHg 70%
    08:00 +2°C° 0 mm 1 m/S 735 mmHg 65%
    09:00 +3°C° 0 mm 1 m/S 734 mmHg 60%
    10:00 +3°C° 0 mm 2 m/S 733 mmHg 55%
    11:00 +4°C° 0 mm 2 m/S 733 mmHg 54%
    12:00 +5°C° 0 mm 2 m/S 732 mmHg 53%
    13:00 +5°C° 0 mm 3 m/S 731 mmHg 52%
    14:00 +7°C° 0 mm 3 m/S 730 mmHg 53%
    15:00 +6°C° 0 mm 4 m/S 729 mmHg 55%
    16:00 +6°C° 0 mm 4 m/S 728 mmHg 56%
    17:00 +5°C° 0 mm 4 m/S 727 mmHg 61%
    18:00 +4°C° 0 mm 4 m/S 726 mmHg 66%
    19:00 +3°C° 0 mm 4 m/S 724 mmHg 71%
    20:00 +2°C° 0 mm 5 m/S 723 mmHg 69%
    21:00 +1°C° 0 mm 6 m/S 722 mmHg 68%
    22:00 +1°C° 0 mm 6 m/S 721 mmHg 66%
    23:00 0°C° 0.2 mm 5 m/S 720 mmHg 69%

    3 April, Freitag

    Zeit Temperatur Niederschläge Wind Luftdruck Luftfeuchtigkeit
    00:00 0°C° 0.2 mm 4 m/S 719 mmHg 72%
    01:00 +1°C° 0.2 mm 3 m/S 719 mmHg 75%
    02:00 -1°C° 0 mm 4 m/S 718 mmHg 67%
    03:00 -2°C° 0 mm 5 m/S 718 mmHg 58%
    04:00 -3°C° 0 mm 6 m/S 717 mmHg 49%
    05:00 -2°C° 0 mm 5 m/S 716 mmHg 50%
    06:00 -2°C° 0 mm 4 m/S 716 mmHg 51%
    07:00 -2°C° 0 mm 4 m/S 715 mmHg 52%
    08:00 -2°C° 0.1 mm 4 m/S 716 mmHg 52%
    09:00 -1°C° 0.1 mm 4 m/S 716 mmHg 52%
    10:00 0°C° 0.1 mm 5 m/S 716 mmHg 52%
    11:00 +1°C° 0 mm 5 m/S 718 mmHg 45%
    12:00 +2°C° 0 mm 6 m/S 719 mmHg 39%
    13:00 +3°C° 0 mm 6 m/S 720 mmHg 32%
    14:00 +3°C° 0 mm 7 m/S 721 mmHg 35%
    15:00 +3°C° 0 mm 7 m/S 722 mmHg 37%
    16:00 +3°C° 0 mm 7 m/S 723 mmHg 40%
    17:00 +2°C° 0 mm 6 m/S 724 mmHg 43%
    18:00 0°C° 0 mm 5 m/S 726 mmHg 47%
    19:00 0°C° 0 mm 3 m/S 727 mmHg 50%
    20:00 0°C° 0 mm 3 m/S 729 mmHg 51%
    21:00 -1°C° 0 mm 3 m/S 730 mmHg 52%
    22:00 -2°C° 0 mm 3 m/S 731 mmHg 53%
    23:00 -2°C° 0 mm 3 m/S 732 mmHg 53%
    Mehr zeigen